Weather History for KPVC - April, 2014

Change the Weather History Date:

Tuesday, April 15, 2014

  Actual Average Record
Temperature  
Mean Temperature 55 °F -  
Max Temperature 60 °F 50 °F 66 °F (2012)
Min Temperature 50 °F 38 °F 32 °F (1958)
Degree Days  
Heating Degree Days 10    
Growing Degree Days 5 (Base 50)    
Moisture  
Dew Point 51 °F    
Average Humidity 90    
Maximum Humidity 100    
Minimum Humidity 72    
Precipitation  
Precipitation 0.06 in - - ()
Sea Level Pressure  
Sea Level Pressure 29.80 in    
Wind  
Wind Speed - (North)    
Max Wind Speed -    
Max Gust Speed -    
Visibility 7 miles    
Events      
Averages and records for this station are not official NWS values.
T = Trace of Precipitation, MM = Missing Value Source: NWS Daily Summary

Daily Weather History Graph

Daily Weather History Graph

Search for Another Location

Airport or City:

Trip Planner

Search our weather history database for the weather conditions in past years. The results will help you decide how hot, cold, wet, or windy it might be!

Date:

Astronomy

Apr. 15, 2014 Rise Set
Actual Time 6:00 AM EDT 7:22 PM EDT
Civil Twilight 5:31 AM EDT 7:51 PM EDT
Nautical Twilight 4:56 AM EDT 8:26 PM EDT
Astronomical Twilight 4:19 AM EDT 9:03 PM EDT
Moon 8:00 PM EDT (4/15) 6:06 AM EDT (4/15)
Length of Visible Light 14h 19m
Length of Day
13h 21m
Full, 100% of the Moon is Illuminated
Apr 15
Full
Apr 22
Last Quarter
Apr 29
New
May 6
First Quarter
May 14
Full

Hourly Weather History & Observations

Time (EDT) Temp. Dew Point Humidity Pressure Visibility Wind Dir Wind Speed Gust Speed Precip Events Conditions
12:15 AM 53.6 °F 48.2 °F 82% 29.96 in 10.0 mi North - - N/A   Clear
12:35 AM 53.6 °F 48.2 °F 82% 29.96 in 10.0 mi North - - N/A   Clear
12:55 AM 53.6 °F 48.2 °F 82% 29.96 in 10.0 mi North - - N/A   Partly Cloudy
1:15 AM 53.6 °F 48.2 °F 82% 29.95 in 10.0 mi North - - N/A   Partly Cloudy
1:35 AM 53.6 °F 48.2 °F 82% 29.95 in 10.0 mi North - - N/A   Mostly Cloudy
1:55 AM 53.6 °F 48.2 °F 82% 29.93 in 10.0 mi North - - N/A   Mostly Cloudy
2:15 AM 53.6 °F 48.2 °F 82% 29.94 in 10.0 mi North - - N/A   Partly Cloudy
2:35 AM 51.8 °F 48.2 °F 88% 29.93 in 10.0 mi North - - N/A   Partly Cloudy
2:55 AM 53.6 °F 48.2 °F 82% 29.94 in 10.0 mi North - - N/A   Clear
3:15 AM 51.8 °F 48.2 °F 88% 29.94 in 9.0 mi North - - N/A   Partly Cloudy
3:35 AM 51.8 °F 48.2 °F 88% 29.92 in 9.0 mi North - - 0.01 in   Clear
3:55 AM 51.8 °F 48.2 °F 88% 29.93 in 8.0 mi North - - 0.01 in   Clear
4:15 AM 51.8 °F 48.2 °F 88% 29.93 in 8.0 mi North - - N/A   Clear
4:35 AM 51.8 °F 48.2 °F 88% 29.92 in 9.0 mi North - - 0.01 in   Scattered Clouds
4:55 AM 51.8 °F 48.2 °F 88% 29.93 in 8.0 mi North - - 0.01 in   Scattered Clouds
5:15 AM 51.8 °F 48.2 °F 88% 29.93 in 9.0 mi North - - N/A   Partly Cloudy
5:35 AM 51.8 °F 50.0 °F 94% 29.92 in 9.0 mi North - - N/A   Partly Cloudy
5:55 AM 51.8 °F 50.0 °F 94% 29.92 in 9.0 mi North - - N/A   Mostly Cloudy
6:15 AM 51.8 °F 48.2 °F 88% 29.92 in 7.0 mi North - - N/A   Overcast
6:35 AM 51.8 °F 48.2 °F 88% 29.93 in 6.0 mi North - - N/A   Overcast
6:55 AM 51.8 °F 48.2 °F 88% 29.92 in 5.0 mi North - - 0.01 in   Overcast
7:15 AM 50.0 °F 50.0 °F 100% 29.92 in 3.0 mi North - - N/A   Overcast
7:35 AM 51.8 °F 50.0 °F 94% 29.91 in 4.0 mi North - - N/A   Overcast
7:55 AM 51.8 °F 51.8 °F 100% 29.90 in 5.0 mi North - - N/A   Overcast
8:15 AM 51.8 °F 51.8 °F 100% 29.89 in 5.0 mi North - - N/A   Overcast
8:35 AM 51.8 °F 51.8 °F 100% 29.89 in 2.5 mi North - - N/A   Overcast
8:55 AM 53.6 °F 51.8 °F 94% 29.89 in 5.0 mi North - - N/A   Overcast
9:15 AM 53.6 °F 53.6 °F 100% 29.89 in 7.0 mi North - - N/A   Overcast
9:35 AM 53.6 °F 51.8 °F 94% 29.89 in 7.0 mi North - - N/A   Overcast
9:55 AM 53.6 °F 51.8 °F 94% 29.88 in 7.0 mi North - - N/A   Mostly Cloudy
10:15 AM 53.6 °F 51.8 °F 94% 29.87 in 7.0 mi North - - N/A   Overcast
10:35 AM 55.4 °F 51.8 °F 88% 29.86 in 8.0 mi North - - N/A   Overcast
10:55 AM 55.4 °F 51.8 °F 88% 29.85 in 8.0 mi North - - N/A   Scattered Clouds
11:15 AM 60.8 °F 51.8 °F 72% 29.84 in 9.0 mi North - - N/A   Partly Cloudy
11:35 AM 59.0 °F 51.8 °F 77% 29.83 in 9.0 mi North - - N/A   Mostly Cloudy
11:55 AM 57.2 °F 51.8 °F 82% 29.82 in 7.0 mi North - - N/A   Mostly Cloudy
12:15 PM 60.8 °F 51.8 °F 72% 29.81 in 9.0 mi North - - N/A   Partly Cloudy
12:55 PM 59.0 °F 51.8 °F 77% 29.80 in 8.0 mi North - - N/A   Clear
1:15 PM 59.0 °F 51.8 °F 77% 29.79 in 8.0 mi North - - N/A   Clear
1:55 PM 59.0 °F 51.8 °F 77% 29.78 in 9.0 mi North - - 0.01 in   Scattered Clouds
2:15 PM 57.2 °F 51.8 °F 82% 29.76 in 7.0 mi North - - N/A   Overcast
2:35 PM 57.2 °F 51.8 °F 82% 29.75 in 8.0 mi North - - N/A   Overcast
2:55 PM 57.2 °F 51.8 °F 82% 29.74 in 7.0 mi North - - N/A   Mostly Cloudy
3:15 PM 57.2 °F 51.8 °F 82% 29.73 in 9.0 mi North - - 0.01 in   Overcast
3:35 PM 57.2 °F 51.8 °F 82% 29.72 in 7.0 mi North - - 0.01 in   Overcast
3:55 PM 55.4 °F 51.8 °F 88% 29.71 in 6.0 mi North - - 0.02 in   Overcast
4:15 PM 55.4 °F 53.6 °F 94% 29.70 in 5.0 mi North - - N/A   Overcast
4:35 PM 55.4 °F 53.6 °F 94% 29.68 in 5.0 mi North - - N/A   Overcast
4:55 PM 55.4 °F 53.6 °F 94% 29.68 in 2.5 mi North - - N/A   Overcast
5:15 PM 55.4 °F 53.6 °F 94% 29.68 in 2.0 mi North - - N/A   Overcast
5:35 PM 55.4 °F 53.6 °F 94% 29.67 in 4.0 mi North - - N/A   Mostly Cloudy
5:55 PM 55.4 °F 51.8 °F 88% 29.68 in 5.0 mi North - - N/A   Overcast
6:15 PM 55.4 °F 53.6 °F 94% 29.66 in 5.0 mi North - - N/A   Overcast
6:35 PM 55.4 °F 53.6 °F 94% 29.66 in 5.0 mi North - - N/A   Mostly Cloudy
6:55 PM 55.4 °F 53.6 °F 94% 29.66 in 5.0 mi North - - N/A   Mostly Cloudy
7:15 PM 55.4 °F 51.8 °F 88% 29.68 in 1.8 mi North - - N/A   Overcast
7:35 PM 53.6 °F 53.6 °F 100% 29.67 in 4.0 mi North - - N/A   Overcast
7:55 PM 53.6 °F 53.6 °F 100% 29.66 in 5.0 mi North - - N/A   Mostly Cloudy
8:15 PM 53.6 °F 53.6 °F 100% 29.67 in 3.0 mi North - - N/A   Mostly Cloudy
8:35 PM 53.6 °F 53.6 °F 100% 29.66 in 4.0 mi North - - N/A   Overcast
8:55 PM 53.6 °F 53.6 °F 100% 29.65 in 7.0 mi North - - N/A   Mostly Cloudy
9:15 PM 53.6 °F 51.8 °F 94% 29.66 in 6.0 mi North - - N/A   Scattered Clouds
9:35 PM 53.6 °F 51.8 °F 94% 29.64 in 4.0 mi North - - N/A   Scattered Clouds
9:55 PM 53.6 °F 51.8 °F 94% 29.64 in 3.0 mi North - - N/A   Mostly Cloudy
10:15 PM 55.4 °F 53.6 °F 94% 29.63 in 5.0 mi North - - N/A   Overcast
10:35 PM 53.6 °F 53.6 °F 100% 29.62 in 5.0 mi North - - N/A   Overcast
10:55 PM 55.4 °F 53.6 °F 94% 29.62 in 7.0 mi North - - N/A   Overcast
11:15 PM 55.4 °F 53.6 °F 94% 29.66 in 5.0 mi North - - N/A   Overcast
11:35 PM 53.6 °F 53.6 °F 100% 29.66 in 2.5 mi North - - N/A   Overcast
11:55 PM 53.6 °F 51.8 °F 94% 29.68 in 2.0 mi North - - N/A   Overcast